This demonstration page uses our WeatherBlox Daily Observations layout. Learn more.

Left ArrowRight Arrow

38.80484, -77.04692

Hourly Observations for September 12, 2021

Temp ( °F °C ) Dew Point ( °F °C ) Humidity (%) Winds ( mph kmh ) Pressure ( in mb ) Visibility ( mi km ) Precip ( " mm )
12:52 am 00:52 Clear 69 20.6 59 15 70 70 S 10 17 30.18 1022 10 16 N/A
1:52 am 01:52 Clear 68 20 59 15 73 73 SSW 10 17 30.17 1022 10 16 N/A
2:52 am 02:52 Partly Cloudy 67 19.4 59 15 76 76 S 8 13 30.16 1022 10 16 N/A
3:52 am 03:52 Partly Cloudy 67 19.4 59 15 76 76 SSW 8 13 30.17 1022 10 16 N/A
4:52 am 04:52 Partly Cloudy 66 18.9 59 15 78 78 SSW 5 7 30.17 1022 10 16 N/A
5:52 am 05:52 Mostly Cloudy 65 18.3 59 15 81 81 SSW 3 6 30.18 1022 10 16 N/A
6:52 am 06:52 Mostly Sunny 65 18.3 59 15 81 81 SSW 5 7 30.18 1022 10 16 N/A
7:52 am 07:52 Sunny 67 19.4 60 15.6 79 79 SSW 8 13 30.19 1022 10 16 N/A
8:52 am 08:52 Sunny 68 20 61 16.1 78 78 SSW 9 15 30.18 1022 10 16 N/A
9:52 am 09:52 Sunny 72 22.2 62 16.7 71 71 S 8 13 30.19 1022 10 16 N/A
10:52 am 10:52 Sunny 73 22.8 63 17.2 71 71 S 13 20 30.18 1022 10 16 N/A
11:52 am 11:52 Sunny 77 25 64 17.8 64 64 S 12 19 30.17 1022 10 16 N/A
12:52 pm 12:52 Sunny 81 27.2 64 17.8 57 57 S 10 17 30.15 1021 10 16 N/A
1:52 pm 13:52 Mostly Sunny 84 28.9 62 16.7 48 48 SSW 14 22 30.14 1021 10 16 N/A
2:52 pm 14:52 Mostly Sunny 85 29.4 61 16.1 45 45 SSW 18 30 30.11 1020 10 16 N/A
3:52 pm 15:52 Sunny 85 29.4 64 17.8 50 50 S 12 19 30.09 1019 10 16 N/A
4:52 pm 16:52 Mostly Sunny 85 29.4 64 17.8 50 50 SSW 15 24 30.09 1019 10 16 N/A
5:52 pm 17:52 Mostly Sunny 84 28.9 65 18.3 53 53 S 10 17 30.08 1019 10 16 N/A
6:52 pm 18:52 Partly Cloudy 79 26.1 69 20.6 72 72 S 8 13 30.08 1019 10 16 N/A
7:52 pm 19:52 Mostly Clear 78 25.6 69 20.6 74 74 S 12 19 30.07 1018 10 16 N/A
8:52 pm 20:52 Mostly Clear 76 24.4 69 20.6 79 79 S 10 17 30.08 1019 10 16 N/A
9:52 pm 21:52 Clear 78 25.6 66 18.9 67 67 SSW 10 17 30.08 1019 10 16 N/A
10:52 pm 22:52 Mostly Cloudy 76 24.4 67 19.4 74 74 SSW 8 13 30.09 1019 10 16 N/A
11:52 pm 23:52 Cloudy 76 24.4 66 18.9 72 72 SW 7 11 30.09 1019 10 16 N/A

Powered by AerisWeather